Notices

What's New in latest Release from April 7th, 2021:

- Updated Glossary, including Speed of Maximum Gust, and Total Hourly Precipitation

- Updated national and regional climate services offices contacts and prices information

- Addition of station inventory lists for 1981-2010, 1971-2000, and 1961-1990 Normals.

If you haven't already, please take our survey and provide feedback about our website: https://eccc.sondage-survey.ca/f/LanguageSelection.aspx?s=442ca660-fcf1-47c0-95a9-59707d6fd709

Hourly Data Report for October 13, 2017

VICTORIA UNIVERSITY CS
BRITISH COLUMBIA

48°27'25.200" N
123°18'16.600" W
60.10 m
1018598
71783
WYJ

Download Data

Hourly Data (October 2017)
Hourly Data Report for October 13, 2017
TIME
LST
Temp Definition
°C
Dew Point Definition
°C
Rel Hum Definition
%
Precip. Amount Definition
mm

Wind Dir Definition
10's deg

Wind Spd Definition
km/h
Visibility Definition
km
Stn Press Definition
kPa
Hmdx Definition


Wind Chill Definition


Weather Definition


00:00 6.7 6.2 97 0.0 28 3   100.91     LegendNANA
01:00 7.2 6.2 94 0.0 27 3   100.92     LegendNANA
02:00 6.4 5.9 96 0.5 24 2   100.92     LegendNANA
03:00 5.7 5.3 97 0.0 26 2   100.91     LegendNANA
04:00 5.9 5.6 98 0.0 26 2   100.94     LegendNANA
05:00 5.5 5.2 98 0.0 25 2   100.98     LegendNANA
06:00 5.5 5.1 97 1.4 33 8   101.05     LegendNANA
07:00 5.4 4.4 93 2.3 26 4   101.08     LegendNANA
08:00 5.8 5.0 95 0.3 31 6   101.22     LegendNANA
09:00 6.5 5.7 95 0.0 21 1   101.29     LegendNANA
10:00 7.7 5.8 88 0.0 21 3   101.37     LegendNANA
11:00 9.3 5.6 78 0.2 30 3   101.45     LegendNANA
12:00 10.5 5.1 69 0.0 33 10   101.52     LegendNANA
13:00 10.6 5.4 70 0.0 1 10   101.56     LegendNANA
14:00 10.8 5.0 67 0.0 2 8   101.63     LegendNANA
15:00 10.6 4.5 66 0.0 2 6   101.70     LegendNANA
16:00 9.8 4.1 68 0.0 2 6   101.79     LegendNANA
17:00 8.5 4.9 78 0.0 18 2   101.85     LegendNANA
18:00 5.7 4.5 92 0.0 23 2   101.91     LegendNANA
19:00 4.4 3.6 95 0.0 22 2   101.97     LegendNANA
20:00 4.2 3.6 96 0.0 23 2   102.03     LegendNANA
21:00 4.1 3.5 96 0.0 24 3   102.12     LegendNANA
22:00 4.9 4.1 95 0.0 22 4   102.16     LegendNANA
23:00 4.5 3.9 96 0.0 23 3   102.21     LegendNANA

Notes on Data Quality.

Legend

  • E = Estimated
  • M = Missing
  • NA = Not Available*
  • [empty] = Indicates an unobserved value
Date modified: